カタログに戻る

STARLINK-34746

運用中通信SSO
NORAD 64847·PAYLOAD·🇺🇸 United States

打ち上げ Jul 19, 2025 から Vandenberg Space Force Base

Loading…

次のパス (今後24時間)

TLE

最新Source: CelesTrak SupGP

元期: Sep 15, 2026, 03:05 UTC

1 64847C 25152F   26258.12895833 -.00027392  00000+0 -85026-3 0  2582
2 64847  97.2845 108.7985 0001997  94.6244 247.3467 15.33454412    15

AllMySatでSTARLINK-34746をリアルタイム追跡

Download on the App Store